• In Russia
  • List of Countries
  • For 7 days
  • Water Temperature
  • Satellite Maps
  • Weather Map
  • Weather Widgets
  • user-avatar
    Login

    Hourly Weather Klagenfurt

    Today, 23 June, Friday

    Time Temperature Precipitation Wind Pressure Humidity
    00:00 +19°C° 0 mm 1 mps 691 mmHg 87%
    01:00 +18°C° 0 mm 1 mps 691 mmHg 87%
    02:00 +18°C° 0 mm 1 mps 691 mmHg 88%
    03:00 +18°C° 0 mm 1 mps 690 mmHg 89%
    04:00 +16°C° 0 mm 1 mps 690 mmHg 89%
    05:00 +19°C° 0 mm 1 mps 691 mmHg 83%
    06:00 +21°C° 0 mm 1 mps 691 mmHg 77%
    07:00 +23°C° 0 mm 1 mps 691 mmHg 71%
    08:00 +25°C° 0 mm 1 mps 692 mmHg 62%
    09:00 +27°C° 0 mm 1 mps 692 mmHg 54%
    10:00 +29°C° 0 mm 2 mps 693 mmHg 45%
    11:00 +30°C° 0 mm 2 mps 693 mmHg 43%
    12:00 +30°C° 0 mm 2 mps 693 mmHg 40%
    13:00 +31°C° 0 mm 2 mps 693 mmHg 38%
    14:00 +31°C° 0.1 mm 2 mps 693 mmHg 41%
    15:00 +30°C° 0.1 mm 2 mps 693 mmHg 45%
    16:00 +29°C° 0.1 mm 2 mps 692 mmHg 48%
    17:00 +28°C° 0.1 mm 2 mps 692 mmHg 57%
    18:00 +26°C° 0.1 mm 1 mps 692 mmHg 66%
    19:00 +24°C° 0.1 mm 1 mps 692 mmHg 76%
    20:00 +22°C° 0 mm 1 mps 692 mmHg 81%
    21:00 +20°C° 0 mm 1 mps 691 mmHg 86%
    22:00 +18°C° 0 mm 1 mps 691 mmHg 91%
    23:00 +18°C° 0 mm 1 mps 691 mmHg 91%

    Tomorrow, 24 June, Saturday

    Time Temperature Precipitation Wind Pressure Humidity
    00:00 +16°C° 0 mm 1 mps 692 mmHg 92%
    01:00 +15°C° 0 mm 1 mps 692 mmHg 93%
    02:00 +15°C° 0 mm 1 mps 692 mmHg 93%
    03:00 +15°C° 0 mm 1 mps 692 mmHg 93%
    04:00 +15°C° 0 mm 1 mps 692 mmHg 94%
    05:00 +18°C° 0 mm 1 mps 692 mmHg 88%
    06:00 +20°C° 0 mm 1 mps 693 mmHg 83%
    07:00 +22°C° 0 mm 1 mps 693 mmHg 77%
    08:00 +23°C° 0 mm 1 mps 693 mmHg 72%
    09:00 +24°C° 0 mm 1 mps 693 mmHg 66%
    10:00 +26°C° 0 mm 1 mps 693 mmHg 60%
    11:00 +27°C° 0.4 mm 1 mps 693 mmHg 59%
    12:00 +27°C° 0.4 mm 1 mps 693 mmHg 59%
    13:00 +28°C° 0.4 mm 2 mps 693 mmHg 58%
    14:00 +27°C° 0.6 mm 2 mps 692 mmHg 60%
    15:00 +27°C° 0.6 mm 2 mps 692 mmHg 62%
    16:00 +27°C° 0.6 mm 2 mps 692 mmHg 65%
    17:00 +26°C° 0.5 mm 1 mps 691 mmHg 72%
    18:00 +25°C° 0.5 mm 1 mps 691 mmHg 79%
    19:00 +23°C° 0.5 mm 1 mps 691 mmHg 85%
    20:00 +22°C° 0.8 mm 1 mps 691 mmHg 88%
    21:00 +20°C° 0.8 mm 1 mps 690 mmHg 91%
    22:00 +19°C° 0.8 mm 1 mps 690 mmHg 94%
    23:00 +18°C° 0.5 mm 1 mps 690 mmHg 94%

    Day after tomorrow, 25 June, Sunday

    Time Temperature Precipitation Wind Pressure Humidity
    00:00 +18°C° 0.5 mm 1 mps 690 mmHg 93%
    01:00 +18°C° 0.5 mm 1 mps 690 mmHg 93%
    02:00 +16°C° 1.2 mm 1 mps 690 mmHg 93%
    03:00 +16°C° 1.2 mm 1 mps 690 mmHg 94%
    04:00 +16°C° 1.2 mm 1 mps 689 mmHg 94%
    05:00 +19°C° 1.7 mm 1 mps 690 mmHg 91%
    06:00 +20°C° 1.7 mm 1 mps 690 mmHg 88%
    07:00 +21°C° 1.7 mm 1 mps 690 mmHg 85%
    08:00 +22°C° 1.8 mm 1 mps 691 mmHg 83%
    09:00 +23°C° 1.8 mm 1 mps 691 mmHg 80%
    10:00 +24°C° 1.8 mm 1 mps 691 mmHg 77%
    11:00 +23°C° 3 mm 1 mps 691 mmHg 79%
    12:00 +23°C° 3 mm 1 mps 691 mmHg 81%
    13:00 +23°C° 3 mm 1 mps 690 mmHg 83%
    14:00 +23°C° 2.1 mm 1 mps 690 mmHg 84%
    15:00 +23°C° 2.1 mm 1 mps 690 mmHg 84%
    16:00 +22°C° 2.1 mm 1 mps 690 mmHg 85%
    17:00 +22°C° 0.8 mm 1 mps 690 mmHg 87%
    18:00 +21°C° 0.8 mm 1 mps 690 mmHg 89%
    19:00 +21°C° 0.8 mm 1 mps 690 mmHg 91%
    20:00 +19°C° 0.3 mm 1 mps 690 mmHg 92%
    21:00 +18°C° 0.3 mm 1 mps 691 mmHg 93%
    22:00 +16°C° 0.3 mm 1 mps 691 mmHg 94%
    23:00 +16°C° 0.3 mm 1 mps 691 mmHg 94%

    26 June, Monday

    Time Temperature Precipitation Wind Pressure Humidity
    00:00 +15°C° 0.3 mm 1 mps 691 mmHg 94%
    01:00 +15°C° 0.3 mm 1 mps 690 mmHg 94%
    02:00 +15°C° 0.1 mm 1 mps 690 mmHg 94%
    03:00 +14°C° 0.1 mm 1 mps 690 mmHg 94%
    04:00 +14°C° 0.1 mm 1 mps 690 mmHg 94%
    05:00 +15°C° 0 mm 1 mps 691 mmHg 91%
    06:00 +18°C° 0 mm 1 mps 691 mmHg 88%
    07:00 +19°C° 0 mm 1 mps 692 mmHg 85%
    08:00 +20°C° 0 mm 1 mps 692 mmHg 78%
    09:00 +21°C° 0 mm 2 mps 692 mmHg 70%
    10:00 +23°C° 0 mm 2 mps 692 mmHg 63%
    11:00 +24°C° 0.1 mm 2 mps 692 mmHg 60%
    12:00 +25°C° 0.1 mm 2 mps 692 mmHg 58%
    13:00 +25°C° 0.1 mm 2 mps 691 mmHg 55%
    14:00 +25°C° 0.1 mm 2 mps 691 mmHg 56%
    15:00 +25°C° 0.1 mm 2 mps 691 mmHg 57%
    16:00 +25°C° 0.1 mm 2 mps 690 mmHg 58%
    17:00 +24°C° 0.1 mm 1 mps 690 mmHg 66%
    18:00 +23°C° 0.1 mm 1 mps 690 mmHg 74%
    19:00 +22°C° 0.1 mm 1 mps 689 mmHg 82%
    20:00 +20°C° 0 mm 1 mps 689 mmHg 86%
    21:00 +18°C° 0 mm 1 mps 689 mmHg 90%
    22:00 +16°C° 0 mm 1 mps 689 mmHg 94%
    23:00 +15°C° 0 mm 1 mps 688 mmHg 94%

    27 June, Tuesday

    Time Temperature Precipitation Wind Pressure Humidity
    00:00 +15°C° 0 mm 1 mps 688 mmHg 95%
    01:00 +15°C° 0 mm 1 mps 687 mmHg 95%
    02:00 +15°C° 0 mm 1 mps 687 mmHg 95%
    03:00 +15°C° 0 mm 1 mps 687 mmHg 95%
    04:00 +15°C° 0 mm 1 mps 687 mmHg 95%
    05:00 +18°C° 0 mm 1 mps 687 mmHg 91%
    06:00 +19°C° 0 mm 1 mps 687 mmHg 87%
    07:00 +21°C° 0 mm 1 mps 687 mmHg 83%
    08:00 +23°C° 0 mm 2 mps 687 mmHg 73%
    09:00 +24°C° 0 mm 2 mps 688 mmHg 64%
    10:00 +26°C° 0 mm 3 mps 688 mmHg 55%
    11:00 +27°C° 0.3 mm 3 mps 687 mmHg 54%
    12:00 +27°C° 0.3 mm 3 mps 687 mmHg 54%
    13:00 +27°C° 0.3 mm 4 mps 687 mmHg 53%
    14:00 +27°C° 0.3 mm 4 mps 687 mmHg 53%
    15:00 +27°C° 0.3 mm 4 mps 686 mmHg 54%
    16:00 +27°C° 0.3 mm 4 mps 686 mmHg 54%
    17:00 +25°C° 0.3 mm 3 mps 686 mmHg 62%
    18:00 +24°C° 0.3 mm 2 mps 685 mmHg 70%
    19:00 +22°C° 0.3 mm 1 mps 685 mmHg 78%
    20:00 +21°C° 0.2 mm 1 mps 685 mmHg 81%
    21:00 +19°C° 0.2 mm 1 mps 684 mmHg 84%
    22:00 +18°C° 0.2 mm 1 mps 684 mmHg 87%
    23:00 +16°C° 0.1 mm 1 mps 684 mmHg 88%

    28 June, Wednesday

    Time Temperature Precipitation Wind Pressure Humidity
    00:00 +16°C° 0.1 mm 1 mps 684 mmHg 89%
    01:00 +16°C° 0.1 mm 1 mps 684 mmHg 90%
    02:00 +16°C° 0 mm 1 mps 684 mmHg 92%
    03:00 +15°C° 0 mm 1 mps 683 mmHg 93%
    04:00 +15°C° 0 mm 1 mps 683 mmHg 95%
    05:00 +18°C° 0.1 mm 1 mps 684 mmHg 91%
    06:00 +18°C° 0.1 mm 2 mps 684 mmHg 88%
    07:00 +20°C° 0.1 mm 2 mps 684 mmHg 84%
    08:00 +21°C° 0.3 mm 2 mps 684 mmHg 78%
    09:00 +22°C° 0.3 mm 3 mps 685 mmHg 72%
    10:00 +24°C° 0.3 mm 3 mps 685 mmHg 66%
    11:00 +25°C° 0.5 mm 4 mps 684 mmHg 64%
    12:00 +26°C° 0.5 mm 4 mps 684 mmHg 63%
    13:00 +26°C° 0.5 mm 4 mps 683 mmHg 61%
    14:00 +26°C° 0.5 mm 4 mps 683 mmHg 62%
    15:00 +26°C° 0.5 mm 4 mps 683 mmHg 63%
    16:00 +25°C° 0.5 mm 4 mps 682 mmHg 63%
    17:00 +24°C° 0.5 mm 3 mps 682 mmHg 69%
    18:00 +23°C° 0.5 mm 2 mps 681 mmHg 74%
    19:00 +22°C° 0.5 mm 1 mps 681 mmHg 80%
    20:00 +20°C° 0.9 mm 1 mps 681 mmHg 83%
    21:00 +19°C° 0.9 mm 1 mps 680 mmHg 86%
    22:00 +16°C° 0.9 mm 1 mps 680 mmHg 90%
    23:00 +16°C° 1.3 mm 1 mps 680 mmHg 91%
    Show more